Tracking 30106 objects as of 23-Jan-2025
HD Live streaming from Space Station
objects crossing your sky now

THEA

Track THEA now!
10-day predictions


NORAD ID: 43796
Int'l Code: 2018-099AQ
Perigee: 517.3 km
Apogee: 530.9 km
Inclination: 97.5 °
Period: 95.0 minutes
Semi major axis: 6895 km
RCS: Unknown
Launch date: December 3, 2018
Source: United States (US)
Launch site: AIR FORCE WESTERN TEST RANGE (AFWTR)
Your satellite tracking list
Your tracking list is empty




NASA's NSSDC Master Catalog

Two Line Element Set (TLE):
1 43796U 18099AQ  25022.14915654  .00020504  00000-0  10578-2 0  9996
2 43796  97.5157  87.0254 0009876 285.5188  74.4954 15.16327290334782
Source of the keplerian elements: AFSPC